Weather History for Jefferson, NC

Change the Weather History Date:

Sunday, February 24, 2013

  Actual Average Record
Temperature  
Mean Temperature 41 °F -  
Max Temperature 48 °F 47 °F 68 °F (2012)
Min Temperature 34 °F 27 °F 8 °F (1967)
Degree Days  
Heating Degree Days 24    
Moisture  
Dew Point 23 °F    
Average Humidity 51    
Maximum Humidity 78    
Minimum Humidity 30    
Precipitation  
Precipitation 0.00 in - - ()
Sea Level Pressure  
Sea Level Pressure 29.91 in    
Wind  
Wind Speed 11 mph (WNW)    
Max Wind Speed 22 mph    
Max Gust Speed 31 mph    
Visibility 10 miles    
Events      
Averages and records for this station are not official NWS values.
T = Trace of Precipitation, MM = Missing Value Source: NWS Daily Summary

Daily Weather History Graph

Daily Weather History Graph

Search for Another Location

Airport:

Trip Planner

Search our weather history database for the weather conditions in past years. The results will help you decide how hot, cold, wet, or windy it might be!

Date:

Astronomy

Feb. 24, 2013 Rise Set
Actual Time 7:02 AM EST 6:15 PM EST
Civil Twilight 6:36 AM EST 6:41 PM EST
Nautical Twilight 6:06 AM EST 7:11 PM EST
Astronomical Twilight 5:36 AM EST 7:41 PM EST
Moon 5:25 PM EST (2/24) 5:58 AM EST (2/24)
Length of Visible Light 12h 05m
Length of Day
11h 13m
Waxing Gibbous, 99% of the Moon is Illuminated
Feb 24
Waxing Gibbous
Feb 25
Full
Mar 4
Last Quarter
Mar 11
New
Mar 19
First Quarter

Hourly Weather History & Observations

Time (EST) Temp. Windchill Dew Point Humidity Pressure Visibility Wind Dir Wind Speed Gust Speed Precip Events Conditions
12:15 AM 43.9 °F 37.5 °F 37.4 °F 78% 29.82 in 10.0 mi West 12.7 mph - N/A   Clear
12:35 AM 43.3 °F 37.2 °F 36.7 °F 77% 29.82 in 10.0 mi West 11.5 mph - N/A   Clear
12:55 AM 43.7 °F 37.7 °F 36.0 °F 74% 29.83 in 10.0 mi WNW 11.5 mph 19.6 mph N/A   Clear
1:15 AM 43.3 °F 36.8 °F 36.1 °F 76% 29.82 in 10.0 mi WNW 12.7 mph 19.6 mph N/A   Scattered Clouds
1:35 AM 43.7 °F 37.3 °F 36.5 °F 76% 29.83 in 10.0 mi WNW 12.7 mph 20.7 mph N/A   Mostly Cloudy
1:55 AM 43.3 °F 37.2 °F 36.5 °F 77% 29.82 in 10.0 mi WNW 11.5 mph 18.4 mph N/A   Mostly Cloudy
2:15 AM 43.3 °F 36.5 °F 36.5 °F 77% 29.81 in 10.0 mi WNW 13.8 mph - N/A   Mostly Cloudy
2:35 AM 43.2 °F 35.6 °F 36.0 °F 76% 29.82 in 10.0 mi WNW 16.1 mph 23.0 mph N/A   Mostly Cloudy
2:55 AM 43.2 °F 36.2 °F 35.8 °F 75% 29.82 in 10.0 mi WNW 13.8 mph - N/A   Mostly Cloudy
3:15 AM 43.0 °F 34.8 °F 34.7 °F 73% 29.81 in 10.0 mi WNW 18.4 mph 25.3 mph N/A   Scattered Clouds
3:35 AM 42.8 °F 37.0 °F 34.3 °F 72% 29.81 in 10.0 mi West 10.4 mph 23.0 mph N/A   Scattered Clouds
3:55 AM 42.4 °F 35.7 °F 33.6 °F 71% 29.81 in 10.0 mi WNW 12.7 mph 24.2 mph N/A   Scattered Clouds
4:15 AM 42.3 °F 35.5 °F 32.9 °F 69% 29.81 in 10.0 mi West 12.7 mph 18.4 mph N/A   Mostly Cloudy
4:35 AM 41.5 °F 34.2 °F 31.8 °F 68% 29.82 in 10.0 mi West 13.8 mph 29.9 mph N/A   Mostly Cloudy
4:55 AM 40.6 °F 31.7 °F 31.1 °F 69% 29.82 in 10.0 mi WNW 18.4 mph 28.8 mph N/A   Scattered Clouds
5:15 AM 39.9 °F 30.5 °F 31.1 °F 71% 29.82 in 10.0 mi West 19.6 mph 26.5 mph N/A   Scattered Clouds
5:35 AM 39.2 °F 29.0 °F 30.4 °F 71% 29.83 in 10.0 mi West 21.9 mph 29.9 mph N/A   Scattered Clouds
5:55 AM 38.5 °F 29.9 °F 28.2 °F 67% 29.84 in 10.0 mi WNW 15.0 mph 28.8 mph N/A   Clear
6:15 AM 37.8 °F 31.8 °F 28.4 °F 69% 29.86 in 10.0 mi WNW 8.1 mph 26.5 mph N/A   Scattered Clouds
6:35 AM 37.6 °F 30.0 °F 28.9 °F 71% 29.87 in 10.0 mi WNW 11.5 mph 21.9 mph N/A   Mostly Cloudy
6:55 AM 37.2 °F 31.9 °F 28.4 °F 70% 29.87 in 10.0 mi West 6.9 mph - N/A   Overcast
7:15 AM 36.5 °F 29.2 °F 27.1 °F 69% 29.88 in 10.0 mi West 10.4 mph 17.3 mph N/A   Overcast
7:35 AM 36.1 °F 26.9 °F 26.6 °F 68% 29.89 in 10.0 mi WNW 15.0 mph 28.8 mph N/A   Mostly Cloudy
7:55 AM 36.0 °F 27.1 °F 26.4 °F 68% 29.89 in 10.0 mi WNW 13.8 mph 26.5 mph N/A   Mostly Cloudy
8:15 AM 36.0 °F 29.0 °F 26.1 °F 67% 29.89 in 10.0 mi WNW 9.2 mph 24.2 mph N/A   Mostly Cloudy
8:35 AM 36.0 °F 29.6 °F 26.6 °F 69% 29.89 in 10.0 mi NW 8.1 mph - N/A   Mostly Cloudy
8:55 AM 36.7 °F 32.0 °F 24.8 °F 62% 29.90 in 10.0 mi West 5.8 mph 19.6 mph N/A   Scattered Clouds
9:15 AM 37.9 °F 30.0 °F 23.5 °F 56% 29.90 in 10.0 mi West 12.7 mph 27.6 mph N/A   Clear
9:35 AM 37.9 °F 30.5 °F 22.6 °F 54% 29.91 in 10.0 mi WNW 11.5 mph 24.2 mph N/A   Clear
9:55 AM 38.1 °F 30.7 °F 22.6 °F 54% 29.92 in 10.0 mi West 11.5 mph 19.6 mph N/A   Clear
10:15 AM 39.0 °F 32.3 °F 21.0 °F 49% 29.92 in 10.0 mi NW 10.4 mph 31.1 mph N/A   Clear
10:35 AM 39.6 °F 34.7 °F 21.2 °F 48% 29.92 in 10.0 mi NW 6.9 mph - N/A   Clear
10:55 AM 40.8 °F 38.8 °F 20.1 °F 44% 29.93 in 10.0 mi NNE 3.5 mph - N/A   Clear
11:15 AM 41.5 °F 37.1 °F 20.7 °F 43% 29.92 in 10.0 mi NW 6.9 mph - N/A   Clear
11:35 AM 42.8 °F 37.5 °F 18.7 °F 38% 29.93 in 10.0 mi NNW 9.2 mph 17.3 mph N/A   Clear
11:55 AM 44.1 °F 41.5 °F 18.5 °F 36% 29.93 in 10.0 mi WNW 4.6 mph - N/A   Clear
12:15 PM 45.3 °F 43.0 °F 17.8 °F 33% 29.92 in 10.0 mi North 4.6 mph 16.1 mph N/A   Clear
12:35 PM 45.0 °F 41.8 °F 17.4 °F 33% 29.92 in 10.0 mi NW 5.8 mph 19.6 mph N/A   Clear
12:55 PM 45.9 °F 41.7 °F 18.1 °F 33% 29.92 in 10.0 mi West 8.1 mph 21.9 mph N/A   Clear
1:15 PM 46.2 °F 40.8 °F 18.7 °F 33% 29.92 in 10.0 mi West 11.5 mph 16.1 mph N/A   Clear
1:35 PM 46.6 °F - 17.6 °F 32% 29.92 in 10.0 mi West 9.2 mph 21.9 mph N/A   Clear
1:55 PM 47.1 °F - 18.0 °F 31% 29.92 in 10.0 mi WNW 6.9 mph - N/A   Clear
2:15 PM 47.5 °F - 19.0 °F 32% 29.91 in 10.0 mi NW 6.9 mph 18.4 mph N/A   Clear
2:35 PM 46.9 °F - 17.4 °F 31% 29.92 in 10.0 mi West 9.2 mph 16.1 mph N/A   Clear
2:55 PM 47.8 °F - 17.8 °F 30% 29.92 in 10.0 mi WNW 15.0 mph 20.7 mph N/A   Clear
3:15 PM 47.7 °F - 18.0 °F 31% 29.92 in 10.0 mi West 10.4 mph 20.7 mph N/A   Clear
3:35 PM 48.2 °F - 18.3 °F 31% 29.92 in 10.0 mi West 12.7 mph 19.6 mph N/A   Clear
3:55 PM 48.2 °F - 17.8 °F 30% 29.92 in 10.0 mi NNW 9.2 mph 19.6 mph N/A   Clear
4:15 PM 47.3 °F - 18.7 °F 32% 29.93 in 10.0 mi West 11.5 mph - N/A   Clear
4:35 PM 47.5 °F - 18.7 °F 32% 29.93 in 10.0 mi West 8.1 mph - N/A   Clear
4:55 PM 46.8 °F - 18.7 °F 33% 29.93 in 10.0 mi West 15.0 mph - N/A   Clear
5:15 PM 46.0 °F 40.6 °F 19.0 °F 34% 29.94 in 10.0 mi NW 11.5 mph - N/A   Clear
5:35 PM 45.5 °F 40.8 °F 18.9 °F 35% 29.94 in 10.0 mi West 9.2 mph - N/A   Clear
5:55 PM 44.8 °F 39.9 °F 19.0 °F 36% 29.95 in 10.0 mi NW 9.2 mph - N/A   Clear
6:15 PM 43.9 °F 39.3 °F 19.2 °F 37% 29.95 in 10.0 mi West 8.1 mph - N/A   Clear
6:35 PM 42.4 °F 38.8 °F 18.7 °F 39% 29.96 in 10.0 mi NW 5.8 mph - N/A   Clear
6:55 PM 41.9 °F 38.2 °F 17.8 °F 38% 29.97 in 10.0 mi NNW 5.8 mph - N/A   Clear
7:15 PM 41.2 °F 35.0 °F 16.3 °F 37% 29.98 in 10.0 mi NW 10.4 mph - N/A   Clear
7:35 PM 41.0 °F 34.3 °F 14.4 °F 34% 29.99 in 10.0 mi NW 11.5 mph - N/A   Clear
7:55 PM 40.3 °F 34.9 °F 13.8 °F 34% 30.00 in 10.0 mi NW 8.1 mph - N/A   Clear
8:15 PM 39.4 °F 35.2 °F 14.2 °F 36% 30.00 in 10.0 mi NNW 5.8 mph - N/A   Clear
8:35 PM 38.1 °F 32.9 °F 14.9 °F 39% 30.00 in 10.0 mi NW 6.9 mph - N/A   Clear
8:55 PM 37.9 °F 32.7 °F 14.9 °F 39% 30.01 in 10.0 mi NW 6.9 mph - N/A   Clear
9:15 PM 37.8 °F 32.5 °F 14.9 °F 39% 30.01 in 10.0 mi NW 6.9 mph - N/A   Clear
9:35 PM 37.4 °F 32.1 °F 15.3 °F 41% 30.00 in 10.0 mi WNW 6.9 mph - N/A   Clear
9:55 PM 36.3 °F 30.1 °F 15.8 °F 43% 30.00 in 10.0 mi NW 8.1 mph - N/A   Clear
10:15 PM 35.8 °F 30.1 °F 16.3 °F 45% 30.00 in 10.0 mi NW 6.9 mph - N/A   Clear
10:35 PM 35.8 °F 30.9 °F 16.5 °F 46% 30.00 in 10.0 mi NW 5.8 mph - N/A   Clear
10:55 PM 35.4 °F 28.4 °F 16.7 °F 47% 29.99 in 10.0 mi NW 9.2 mph - N/A   Clear
11:15 PM 35.2 °F 29.5 °F 16.7 °F 47% 29.98 in 10.0 mi NW 6.9 mph - N/A   Clear
11:35 PM 34.7 °F 30.6 °F 16.9 °F 48% 29.98 in 10.0 mi NW 4.6 mph - N/A   Clear
11:55 PM 34.9 °F - 16.7 °F 48% 29.99 in 10.0 mi Calm Calm - N/A   Clear